Regional Weather Roundup
Issued by NWS

Home | Current Version | Previous Version | Graphics & Text | Print | Product List | Glossary Off
Versions: 1 2 3 4 5 6 7 8 9 10 11 12 13 14 15 16 17 18 19 20 21 22 23 24 25 26 27 28 29 30 31 32 33 34 35 36 37 38 39 40 41 42 43 44 45 46 47 48 49 50

000
ASUS43 KDMX 201607
RWRIA

WEATHER ROUNDUP FOR IOWA
NATIONAL WEATHER SERVICE DES MOINES IA
1100 AM CDT MON OCT 20 2014

NOTE: "FAIR" INDICATES FEW OR NO CLOUDS BELOW 12,000 FEET WITH NO
SIGNIFICANT WEATHER AND/OR OBSTRUCTIONS TO VISIBILITY.

* - THESE STATIONS ARE NOT NWS STATIONS...THUS NOT UNDER NWS
QUALITY CONTROL.  THEY ALSO DO NOT REPORT WEATHER SUCH
AS PRECIPITATION OR FOG.

IAZ001>003-012>014-020>022-031>034-043>046-201700-
   NORTHWEST IOWA

CITY           SKY/WX    TMP DP  RH WIND       PRES   REMARKS
CARROLL *      SUNNY     63  43  48 W5        30.07S
CHEROKEE *     SUNNY     57  48  72 CALM      30.08F
DENISON *      SUNNY     59  46  63 VRB3      30.07S
LE MARS *      SUNNY     61  45  55 VRB7      30.10S
ORANGE CITY *  SUNNY     61  43  51 NW9       30.09S
SHELDON *      SUNNY     57  43  58 NW9       30.08S
SIOUX CITY     SUNNY     58  44  60 VRB6      30.11S
SPENCER        SUNNY     61  44  53 NW10      30.07S
STORM LAKE *   SUNNY     59  41  51 W8G15     30.08F
$$

IAZ055>058-069>071-079>083-090>094-201700-
   SOUTHWEST IOWA

CITY           SKY/WX    TMP DP  RH WIND       PRES   REMARKS
ATLANTIC *     SUNNY     61  46  59 NE5       30.08S
AUDUBON *      SUNNY     63  39  42 NW3       30.08S
CLARINDA *     SUNNY     61  46  59 VRB3      30.10S
COUNCIL BLFS * SUNNY     61  46  59 VRB6      30.08F
CRESTON *      SUNNY     61  45  55 NE6G12    30.08R
HARLAN  *      SUNNY     61  45  55 NE3       30.12S
LAMONI         SUNNY     62  47  57 N6        30.06S
RED OAK *      SUNNY     61  45  55 NE6       30.09S
SHENANDOAH *   SUNNY     61  48  63 E7        30.10S
$$

IAZ047>049-059>061-072>074-084-201700-
   CENTRAL IOWA

CITY           SKY/WX    TMP DP  RH WIND       PRES   REMARKS
AMES           SUNNY     61  44  53 NW7       30.04S
ANKENY *       SUNNY     61  46  59 W5        30.04S
CHARITON *     SUNNY     61  45  55 N8        30.04F
DES MOINES     SUNNY     61  46  57 NW6       30.05S
GRINNELL*      SUNNY     61  45  55 NW8       30.03S
KNOXVILLE *    SUNNY     59  45  58 NW7       30.03S
MARSHALLTOWN   SUNNY     59  47  64 NW6       30.02S
PELLA *        SUNNY     61  46  59 NW6       30.04S
PERRY *          N/A     61  45  55 NW3       30.06S
$$

IAZ004>006-015-016-023>025-035-036-201700-
   NORTH CENTRAL IOWA

CITY           SKY/WX    TMP DP  RH WIND       PRES   REMARKS
ALGONA *       SUNNY     59  43  55 N13       30.05S
CLARION *      SUNNY     59  45  58 NW10      30.04S
ESTHERVILLE    SUNNY     60  42  51 NW12      30.05S
FORT DODGE *   SUNNY     61  43  51 NW6       30.06S
MASON CITY     SUNNY     60  44  55 NW15      30.03S
FOREST CITY *  SUNNY     59  45  58 NW10      30.03S
IOWA FALLS *     N/A     59  45  58 W9        30.04S
$$

IAZ007>011-017>019-026>030-037>042-050>054-066-201700-
   NORTHEAST IOWA

CITY           SKY/WX    TMP DP  RH WIND       PRES   REMARKS
CEDAR RAPIDS   SUNNY     58  46  64 NW9       29.99R
CHARLES CITY * SUNNY     59  45  58 NW9       30.00F
CLINTON *      SUNNY     59  43  55 N13G18    29.97R
DECORAH *      SUNNY     57  45  62 NW8       29.97S
DUBUQUE        SUNNY     55  45  68 N16G23    29.95R
MONTICELLO *   SUNNY     59  46  63 NW14      29.96S
OELWEIN *      SUNNY     57  45  62 NW10      29.99F
WATERLOO       SUNNY     58  44  60 NW10      30.00S
$$

IAZ064-065-067-068-078-201700-
   EAST CENTRAL IOWA

CITY           SKY/WX    TMP DP  RH WIND       PRES   REMARKS
DAVENPORT      SUNNY     59  43  55 N16       29.95R
IOWA CITY      SUNNY     58  46  64 NW12      30.00S
MT. PLEASANT * SUNNY     59  45  58 N10G17    30.00S
MUSCATINE *    SUNNY     61  45  55 N14       29.98S
QUAD CITIES    SUNNY     60  45  57 NW13      29.94S
$$

IAZ062-063-075>077-085>089-095>099-201700-
   SOUTHEAST IOWA

CITY           SKY/WX    TMP DP  RH WIND       PRES   REMARKS
BURLINGTON     SUNNY     62  46  55 NW14      29.98R
FAIRFIELD *    SUNNY     61  45  55 NW10      30.01S
FORT MADISON * SUNNY     64  48  55 NW9       30.00S
KEOKUK *       SUNNY     63  48  59 NW10      29.99S
OSKALOOSA *      N/A     59  45  58 N5        30.03S
CENTERVILLE *  SUNNY     63  46  55 N6        30.05S
OTTUMWA        SUNNY     61  47  59 NW9       30.02S
WASHINGTON *   SUNNY     61  46  59 NW12G18   30.00S
$$

ABBREVIATIONS USED IN REMARKS
   TC - TEMPERATURES IN CELSIUS
  WCI - WIND CHILL INDEX
   HX - HEAT INDEX
  VSB - VISIBILITY
$$




USA.gov is the U.S. government's official web portal to all federal, state and local government web resources and services.